Location: Azalea Creek
(37.1280°N, 119.2623°W)
Time: 15:51:22
(UTC+00:00)

STARLINK-65 - Pass Details

Date: 17 February 2020
Orbit: 529 x 530 km, 53.0° (Epoch: 08 April)

Event Time Altitude Azimuth Distance (km) Brightness Sun altitude
Rises 02:15:40 0° 201° (SSW) 2,651 7.6 -8.2°
Reaches altitude 10° 02:18:03 10° 190° (S) 1,766 6.5 -8.7°
Maximum altitude 02:21:34 29° 129° (SE) 977 4.5 -9.4°
Enters shadow 02:24:28 13° 73° (ENE) 1,568 5.3 -10.0°
